Flag for U.S.A. Weather past 2 weeks in Green Bay, Wisconsin, U.S.A.

Now
21 °F

Overcast.


Feels Like: 7 °F
Forecast: 1 / 26 °F
Wind: 17 mph from Southwest

Location: Austin Straubel International Airport

Current Time: Mar 6, 2015 at 12:13:07 PM

Latest Report: Mar 6, 2015 at 11:53 AM


Visibility: 10 mi

Pressure: 30.17 "Hg

Humidity: 60%

Dew point: 9 °F

Location of Green BayLocation

Historic Weather in Green Bay — Graph

°F

Green Bay temperature yesterday

Maximum temperature yesterday: 14 °F (at 2:53 PM)
Minimum temperature yesterday: -7 °F (at 2:53 AM)
Average temperature yesterday: 4 °F

Past Weeks' High & Low Weather Summary

 TemperatureHumidityPressure
High34 °F (Feb 24, 2:53 PM)96% (Mar 3, 2:53 AM)30.75 "Hg (Mar 3, 2:53 AM)
Low-13 °F (Feb 23, 5:53 AM)37% (Feb 24, 6:53 PM)29.52 "Hg (Feb 24, 1:53 PM)
Average11 °F63%30.25 "Hg
* Reported Feb 19 10:53 AM — Mar 6 10:53 AM, Green Bay, Weather by CustomWeather, © 2015

Note: Actual official high and low records may vary slightly from our data, if they occured in-between our weather recording intervals... More about our weather records

Advertising

Green Bay weather history for previous 24 hours

 ConditionsComfort  
Time TempWeatherWind HumidityBarometerVisibility
10:53 AM
Fri, Mar 6
17 °FScattered clouds.16 mph62%30.20 "Hg10 mi
9:53 AM12 °FScattered clouds.14 mph67%30.25 "Hg10 mi
8:53 AM9 °FOvercast.20 mph66%30.28 "Hg10 mi
7:53 AM5 °FSunny.14 mph72%30.30 "Hg10 mi
6:53 AM2 °FSunny.12 mph72%30.32 "Hg10 mi
5:53 AM1 °FClear.9 mph72%30.35 "Hg10 mi
4:53 AM1 °FClear.8 mph72%30.36 "Hg10 mi
3:53 AM1 °FClear.6 mph72%30.38 "Hg10 mi
2:53 AM2 °FClear.9 mph69%30.40 "Hg10 mi
1:53 AM3 °FClear.5 mph62%30.42 "Hg10 mi
12:53 AM4 °FClear.7 mph60%30.44 "Hg10 mi
11:53 PM
Thu, Mar 5
5 °FClear.6 mph57%30.46 "Hg10 mi
10:53 PM5 °FClear.7 mph57%30.47 "Hg10 mi
9:53 PM4 °FClear.6 mph60%30.48 "Hg10 mi
8:53 PM7 °FClear.5 mph52%30.48 "Hg10 mi
7:53 PM8 °FClear.5 mph52%30.49 "Hg10 mi
6:53 PM8 °FClear.5 mph52%30.50 "Hg10 mi
5:53 PM11 °FClear.8 mph48%30.48 "Hg10 mi
4:53 PM13 °FSunny.14 mph44%30.47 "Hg10 mi
3:53 PM14 °FSunny.10 mph42%30.47 "Hg10 mi
2:53 PM14 °FSunny.12 mph44%30.47 "Hg10 mi
1:53 PM13 °FSunny.8 mph44%30.47 "Hg10 mi
12:53 PM12 °FSunny.9 mph46%30.49 "Hg10 mi
Weather by CustomWeather, © 2015

See weather overviewHow to use our weather pages